Voltar ao catálogo

STARLINK-30571

AtivoComunicaçõesVLEO
NORAD 58066·PAYLOAD·🇺🇸 United States

Lançado Oct 13, 2023 de Cape Canaveral Space Force Station

Loading…

Próximas Passagens (próximas 24 horas)

TLE

AtualizadoSource: CelesTrak SupGP

Época: Sep 14, 2026, 21:42 UTC

1 58066C 23158R   26257.90465278  .00040925  00000+0  14820-2 0  2570
2 58066  43.0015  38.6650 0001511 270.7345 157.3450 15.27565036    10

Acompanhe STARLINK-30571 em tempo real com AllMySat

Download on the App Store